Temp
16 16 17 17 17 18 18 18 19 19 19 20 20 20 20 21 22 22 23 26 25 25 24 24 24 22 22 21 21 21 20 22 23 27 27 26 25 24 25 23 22 22 21 21 20
16 16 16 17 17 17 18 18 19 19 19 20 20 20 20 21 22 23 26 26 26 25 24 23 25 24 23 23 23 20 21 25 25 27 28 28 26 25 24 23 23 22 22 20 20
15 16 16 16 16 17 18 18 18 19 19 20 20 20 20 20 21 26 26 26 27 25 24 24 25 25 24 26 23 23 23 24 27 27 28 27 26 25 24 23 23 22 21 20 20
15 15 16 16 16 17 17 18 18 19 19 20 20 20 20 20 20 26 26 26 26 25 24 24 24 25 24 24 26 24 26 28 29 31 29 27 27 25 25 25 25 24 23 21 20
14 15 15 16 16 17 17 18 18 18 18 19 20 20 19 19 23 26 25 25 26 25 25 24 24 25 24 25 26 24 26 29 30 32 31 29 28 26 27 25 24 24 22 21 21
14 14 15 15 16 17 17 18 18 19 19 19 19 19 18 16 26 25 25 25 25 26 26 25 25 26 26 26 26 27 28 29 30 30 31 29 29 29 26 26 24 23 22 22 21
13 14 14 14 15 16 17 18 19 19 19 19 19 18 18 23 26 26 25 26 25 25 25 26 26 26 26 26 29 29 27 28 29 30 30 30 27 26 26 25 25 24 23 22 22
12 12 13 14 15 15 17 18 19 20 20 20 19 18 18 24 25 25 25 25 26 24 25 26 25 26 26 27 27 27 26 25 28 29 30 29 25 26 26 25 25 25 25 23 23
11 11 12 14 14 15 17 19 19 20 21 20 19 17 18 23 24 27 26 26 26 25 25 26 26 26 26 25 22 23 24 25 26 29 29 27 24 27 26 25 24 25 25 25 24
11 11 12 14 14 15 18 19 20 19 18 17 16 15 22 25 26 26 26 26 25 26 25 26 26 23 21 21 21 23 25 25 26 29 29 25 25 27 26 25 25 24 24 25 25
9 10 11 13 14 15 18 19 18 18 16 17 18 21 23 24 25 26 26 26 25 26 23 25 22 22 22 22 24 25 25 24 27 30 27 27 27 26 26 25 25 24 24 24 25
9 10 11 13 14 15 15 16 14 13 13 18 19 19 22 23 21 26 27 26 24 22 22 23 22 23 24 24 25 25 25 25 26 28 27 25 28 27 26 26 26 25 25 25 25
9 9 10 12 14 14 14 15 15 16 15 18 20 20 20 21 19 23 25 26 23 22 23 22 23 25 25 25 25 25 25 26 26 28 29 26 25 26 26 27 26 26 25 25 25
9 10 10 11 13 14 16 15 16 17 13 17 19 21 21 22 20 26 25 26 24 24 23 23 25 25 25 25 25 23 27 28 27 27 26 27 24 24 25 26 25 26 26 26 25
9 9 10 10 10 12 14 15 17 17 16 24 24 25 23 23 26 26 27 27 24 24 23 23 25 25 25 26 26 25 27 27 27 26 26 26 23 23 24 24 24 26 27 26 26
6 9 9 11 11 13 13 15 16 15 15 21 26 23 22 23 26 28 26 26 27 25 24 25 27 26 26 27 27 28 27 26 26 24 23 26 26 22 27 26 27 27 27 27 27
5 6 10 10 13 12 12 14 12 13 20 24 19 20 22 21 24 26 25 24 24 22 23 25 25 26 27 25 26 26 23 22 23 23 23 23 23 27 27 27 28 28 28 28 27
5 7 10 12 12 11 11 10 11 17 18 19 17 21 23 23 23 25 23 24 24 23 21 22 23 25 27 26 26 23 25 23 22 21 23 23 23 27 28 29 29 30 30 29 28
4 7 11 13 11 9 8 7 11 15 15 15 16 18 19 21 19 21 23 23 25 23 22 20 23 26 28 27 27 25 24 25 22 22 22 23 25 26 27 27 29 30 30 29 29
4 5 12 10 9 9 6 8 11 14 15 15 14 17 14 16 17 16 18 24 25 25 24 23 22 24 28 28 27 27 24 25 19 24 24 23 25 26 26 27 27 29 30 30 29
4 4 11 9 9 9 6 7 13 14 15 14 13 13 14 15 16 16 17 21 23 25 26 25 22 24 25 25 26 26 25 23 23 23 25 22 26 25 26 25 26 28 30 30 30
2 1 9 7 5 7 8 10 13 13 14 14 15 15 14 13 14 16 17 18 21 20 20 23 24 23 25 25 27 27 26 23 25 22 20 26 27 30 27 26 26 28 30 31 31
2 3 7 7 4 5 7 9 11 12 12 12 13 13 12 12 11 15 15 18 14 16 16 17 21 22 23 25 26 25 26 27 19 19 24 22 25 26 27 26 27 28 31 31 31
2 1 5 6 6 5 5 7 8 9 11 12 12 11 10 10 11 11 13 14 13 14 15 14 17 21 24 25 25 23 26 25 26 26 25 25 25 27 27 26 25 29 32 32 33
2 2 4 2 4 5 6 6 7 7 10 10 9 10 7 7 8 11 11 11 13 14 12 10 12 19 19 24 27 26 26 27 26 27 26 27 24 24 25 26 26 29 31 30 32
2 2 2 2 3 3 6 6 5 5 7 8 8 9 8 7 8 8 9 9 9 11 10 9 11 14 18 23 27 27 27 27 27 28 27 24 24 24 26 27 28 28 29 30 32
2 2 2 2 2 3 4 5 6 5 6 8 8 7 8 9 10 10 8 10 9 10 10 9 10 12 14 21 25 25 27 27 27 28 27 25 25 23 25 25 25 29 29 30 32
Height
1527 1524 1522 1519 1516 1514 1512 1510 1507 1505 1503 1501 1498 1496 1495 1492 1491 1489 1484 1485 1490 1495 1497 1500 1503 1507 1512 1512 1515 1516 1518 1513 1504 1496 1495 1500 1501 1511 1509 1509 1514 1514 1515 1523 1531
1525 1522 1519 1516 1513 1511 1508 1506 1504 1502 1500 1498 1495 1493 1492 1488 1485 1480 1477 1477 1481 1488 1490 1494 1498 1503 1507 1506 1509 1510 1509 1498 1487 1487 1490 1489 1494 1502 1509 1513 1516 1516 1523 1529 1532
1523 1520 1517 1513 1510 1507 1505 1502 1499 1497 1496 1494 1492 1490 1489 1486 1482 1472 1471 1470 1473 1479 1486 1491 1496 1499 1500 1500 1501 1499 1499 1485 1481 1482 1491 1490 1495 1497 1503 1512 1505 1511 1519 1526 1530
1520 1517 1514 1510 1507 1504 1500 1498 1496 1493 1491 1490 1488 1487 1486 1485 1485 1470 1471 1469 1470 1477 1484 1487 1490 1494 1495 1496 1492 1497 1486 1479 1476 1477 1484 1494 1491 1496 1493 1497 1504 1507 1511 1519 1528
1517 1514 1510 1507 1503 1500 1497 1494 1492 1489 1487 1485 1484 1483 1483 1481 1466 1469 1471 1471 1473 1476 1478 1482 1485 1488 1490 1485 1487 1491 1484 1475 1474 1473 1481 1488 1485 1487 1495 1497 1506 1510 1515 1519 1523
1515 1510 1507 1503 1499 1496 1492 1490 1487 1485 1482 1480 1479 1478 1478 1476 1462 1462 1465 1468 1471 1473 1475 1478 1480 1483 1485 1481 1483 1481 1482 1476 1471 1473 1474 1481 1488 1487 1493 1497 1505 1509 1512 1517 1521
1511 1507 1504 1499 1495 1491 1487 1484 1482 1479 1477 1475 1473 1473 1470 1451 1460 1460 1461 1464 1467 1470 1471 1473 1477 1481 1479 1480 1477 1477 1481 1475 1472 1468 1472 1477 1490 1487 1489 1495 1502 1507 1512 1515 1518
1507 1503 1499 1496 1491 1487 1483 1479 1475 1472 1470 1469 1468 1467 1454 1448 1454 1452 1457 1459 1462 1465 1469 1471 1474 1476 1478 1476 1475 1477 1479 1490 1465 1463 1473 1475 1499 1486 1487 1493 1501 1505 1510 1513 1516
1505 1500 1495 1491 1487 1482 1477 1474 1470 1466 1464 1464 1464 1463 1448 1443 1441 1444 1450 1454 1458 1461 1464 1468 1472 1473 1474 1477 1487 1482 1495 1486 1472 1461 1463 1472 1490 1483 1487 1490 1497 1501 1505 1508 1514
1502 1497 1491 1488 1483 1477 1472 1470 1465 1463 1462 1461 1461 1466 1444 1439 1440 1440 1444 1451 1455 1457 1462 1466 1468 1471 1473 1482 1500 1492 1487 1481 1477 1461 1460 1473 1477 1478 1484 1487 1492 1497 1500 1504 1508
1500 1494 1488 1484 1480 1475 1471 1468 1469 1466 1463 1460 1455 1446 1436 1438 1437 1437 1441 1448 1452 1454 1459 1459 1470 1471 1471 1471 1471 1474 1479 1482 1463 1456 1470 1465 1469 1474 1479 1486 1489 1492 1496 1500 1500
1498 1492 1486 1481 1476 1472 1472 1472 1477 1479 1455 1446 1440 1436 1430 1437 1439 1434 1439 1443 1446 1452 1453 1461 1464 1460 1462 1465 1468 1471 1476 1474 1465 1457 1465 1471 1465 1465 1472 1473 1474 1482 1489 1494 1497
1498 1492 1485 1478 1472 1472 1471 1472 1471 1468 1458 1430 1422 1418 1417 1426 1431 1426 1432 1434 1439 1450 1449 1457 1453 1453 1458 1462 1468 1466 1472 1467 1474 1461 1456 1466 1477 1474 1473 1475 1477 1478 1480 1485 1488
1496 1491 1485 1477 1476 1472 1469 1469 1468 1465 1466 1430 1414 1402 1404 1413 1418 1415 1423 1429 1433 1441 1446 1449 1445 1449 1453 1457 1461 1476 1453 1459 1466 1474 1483 1457 1502 1478 1472 1473 1473 1476 1478 1479 1483
1495 1490 1485 1482 1475 1472 1469 1467 1466 1464 1481 1408 1401 1397 1398 1403 1400 1402 1413 1423 1426 1431 1440 1441 1437 1442 1448 1446 1448 1453 1453 1458 1462 1471 1472 1469 1490 1477 1464 1472 1470 1467 1468 1469 1473
1492 1488 1483 1480 1472 1472 1467 1464 1465 1476 1472 1413 1394 1396 1402 1401 1397 1395 1405 1417 1419 1425 1426 1428 1428 1431 1433 1437 1440 1444 1453 1456 1459 1472 1494 1468 1471 1480 1455 1453 1453 1456 1457 1459 1465
1487 1483 1481 1476 1468 1470 1468 1466 1476 1477 1423 1406 1414 1410 1401 1401 1400 1397 1402 1411 1417 1436 1432 1426 1425 1423 1426 1439 1435 1442 1461 1491 1489 1486 1483 1463 1472 1450 1433 1432 1434 1441 1444 1449 1455
1482 1477 1472 1467 1464 1465 1468 1469 1473 1433 1425 1414 1420 1407 1405 1403 1399 1395 1404 1408 1405 1413 1428 1438 1443 1419 1412 1422 1433 1441 1445 1471 1496 1493 1480 1458 1469 1439 1421 1419 1420 1425 1431 1441 1447
1478 1471 1463 1458 1458 1458 1466 1471 1451 1436 1435 1432 1422 1418 1416 1403 1413 1406 1396 1398 1392 1401 1426 1436 1428 1405 1406 1409 1416 1430 1442 1435 1464 1460 1474 1456 1440 1421 1414 1415 1414 1418 1427 1432 1437
1476 1471 1457 1458 1460 1461 1465 1455 1444 1433 1435 1435 1440 1425 1437 1432 1431 1427 1415 1387 1389 1391 1397 1406 1427 1401 1399 1402 1403 1410 1419 1445 1458 1469 1475 1457 1444 1433 1419 1414 1413 1415 1418 1419 1425
1477 1472 1453 1455 1454 1455 1456 1453 1441 1432 1440 1441 1441 1442 1434 1436 1432 1435 1422 1399 1391 1389 1388 1394 1411 1405 1398 1400 1407 1410 1418 1421 1425 1440 1452 1470 1427 1406 1408 1406 1406 1404 1405 1407 1410
1478 1475 1454 1451 1452 1447 1447 1445 1443 1439 1435 1438 1435 1433 1434 1436 1428 1427 1421 1416 1401 1407 1407 1395 1394 1401 1392 1381 1380 1388 1398 1412 1425 1444 1440 1425 1398 1386 1393 1395 1396 1397 1392 1395 1406
1478 1467 1456 1455 1458 1456 1449 1444 1440 1437 1438 1436 1435 1432 1435 1437 1439 1420 1418 1412 1420 1416 1416 1406 1389 1402 1395 1386 1378 1390 1386 1385 1409 1417 1415 1433 1409 1382 1389 1391 1389 1392 1396 1399 1403
1481 1475 1460 1459 1462 1462 1458 1451 1447 1443 1439 1436 1433 1432 1434 1436 1433 1430 1424 1420 1423 1422 1416 1404 1395 1386 1378 1375 1375 1387 1378 1381 1386 1400 1407 1391 1401 1388 1388 1389 1389 1386 1388 1389 1395
1482 1477 1470 1469 1460 1464 1462 1460 1452 1447 1439 1440 1437 1437 1441 1441 1435 1426 1426 1425 1422 1420 1417 1417 1411 1384 1375 1363 1355 1360 1364 1368 1375 1372 1383 1378 1393 1390 1384 1383 1382 1382 1379 1385 1387
1480 1478 1472 1469 1465 1463 1457 1455 1453 1455 1450 1442 1440 1438 1438 1441 1437 1432 1430 1430 1429 1423 1424 1420 1414 1397 1377 1356 1350 1354 1355 1352 1353 1360 1365 1374 1380 1368 1367 1370 1373 1376 1379 1377 1381
1477 1475 1472 1466 1463 1463 1458 1455 1456 1456 1447 1442 1438 1437 1435 1432 1430 1425 1423 1422 1422 1427 1425 1426 1416 1408 1392 1358 1348 1363 1330 1343 1349 1348 1353 1371 1366 1362 1364 1364 1365 1367 1370 1372 1372
Wind_Speed
18 18 18 18 18 18 18 18 19 18 18 19 19 19 19 21 22 25 30 24 19 18 19 9 17 17 18 19 16 10 3 3 4 7 6 30 17 23 17 34 21 7 30 38 38
20 20 20 20 20 20 19 20 20 20 20 19 20 20 19 22 24 29 22 20 21 20 19 20 16 20 13 17 13 7 3 6 6 5 1 28 32 25 17 29 10 22 32 39 41
21 21 21 21 21 21 20 20 20 21 21 20 20 20 18 19 23 10 7 6 18 26 20 18 14 14 15 10 13 9 6 6 8 16 9 30 32 31 33 17 33 36 39 41 42
25 24 23 23 24 24 23 22 21 21 21 21 21 19 18 15 6 1 3 3 12 24 19 14 19 16 7 9 15 4 14 16 6 7 15 22 33 27 34 20 41 42 45 47 41
26 26 25 25 25 24 24 24 23 22 22 21 20 19 16 12 29 17 8 1 11 19 20 21 21 16 6 6 16 5 6 25 22 14 18 23 24 24 20 35 39 41 46 46 45
25 26 26 26 26 26 25 24 23 23 23 23 20 17 15 11 19 7 21 16 12 12 15 22 15 21 7 9 9 11 21 23 25 23 13 14 9 14 27 38 39 42 46 44 44
29 26 25 26 26 26 26 25 24 23 22 21 21 18 21 40 9 5 8 19 20 19 18 16 27 14 3 7 12 13 6 14 18 17 4 24 6 15 39 43 42 40 42 42 46
32 32 30 27 26 26 26 25 24 23 21 20 19 17 19 24 18 21 27 24 17 24 21 13 16 25 24 17 10 3 3 4 14 18 15 16 10 22 42 42 37 36 37 38 46
31 32 32 30 27 26 25 23 23 18 17 14 13 10 17 12 19 20 25 24 19 19 22 16 18 23 16 4 5 2 5 7 11 9 16 5 4 25 38 39 35 37 37 38 39
32 32 32 30 28 26 24 20 13 9 5 3 8 6 18 13 5 8 25 26 23 19 26 24 13 6 1 4 7 5 3 6 6 2 17 5 8 22 36 37 37 37 38 38 41
32 32 33 30 27 25 19 13 9 3 14 15 16 17 26 13 9 12 24 25 27 20 9 13 5 13 11 7 6 4 5 8 11 4 4 17 19 20 34 33 33 35 37 39 46
32 32 34 31 28 18 8 8 13 16 18 24 32 40 44 37 15 11 24 23 15 8 6 4 13 8 8 7 10 9 13 17 9 10 8 10 20 19 25 32 42 39 38 40 41
32 32 34 33 22 6 11 5 16 22 7 16 32 32 32 28 24 31 14 31 8 8 12 12 8 12 10 11 11 15 16 15 9 7 1 8 3 4 10 22 29 37 43 44 46
33 32 34 36 9 25 9 9 13 11 4 8 7 10 19 15 12 43 27 30 7 17 8 10 12 13 18 14 14 13 15 14 8 4 7 6 4 6 10 9 14 30 36 40 43
30 30 31 28 32 28 16 13 9 2 5 4 5 3 15 20 12 25 39 28 14 8 8 10 19 19 16 18 18 14 12 10 10 6 4 4 4 7 9 11 11 22 39 41 47
31 27 27 26 31 14 20 8 2 4 8 7 6 6 8 7 3 10 26 29 13 12 10 18 14 15 16 13 17 14 7 8 3 5 8 14 13 6 11 12 17 22 33 45 45
36 34 22 25 27 22 19 9 3 5 5 3 5 8 6 8 7 4 21 17 16 11 20 10 18 6 12 10 11 11 7 5 7 8 10 10 6 12 18 19 24 23 34 44 48
36 35 30 24 27 22 10 3 6 5 9 8 13 13 4 4 7 5 6 19 17 4 6 12 9 19 11 17 15 9 16 9 10 4 5 6 9 13 15 22 39 44 41 40 45
37 34 31 23 11 8 5 4 7 5 5 15 11 4 7 6 14 8 16 14 21 16 10 8 13 4 15 13 17 10 10 12 6 3 2 4 7 6 10 12 25 34 36 39 48
34 28 25 15 11 8 3 4 5 3 13 10 3 4 10 13 12 18 6 7 13 16 13 8 4 12 18 18 17 18 7 4 2 15 17 5 6 8 8 14 14 22 33 43 45
26 12 17 4 20 11 6 7 5 26 14 7 13 14 16 13 5 8 11 15 1 7 21 19 9 10 5 15 17 11 11 3 6 8 12 7 16 9 10 10 14 22 41 45 45
12 4 20 20 6 2 7 6 14 16 29 13 10 15 9 11 10 8 11 10 25 16 12 13 15 16 25 12 12 20 15 11 9 7 6 16 25 3 10 9 10 24 41 47 38
18 15 20 20 4 6 10 9 8 7 5 6 4 4 6 4 5 7 10 12 29 15 8 8 6 10 9 14 16 8 13 19 5 5 18 9 8 7 5 6 16 14 19 29 31
8 4 7 10 12 10 11 7 10 14 10 8 8 2 6 2 4 6 11 10 28 18 23 13 6 12 19 13 6 8 17 12 19 15 11 22 5 6 1 7 9 25 35 38 44
3 4 7 5 7 11 9 8 12 9 9 7 4 8 4 3 5 4 7 15 12 8 14 6 6 4 13 15 21 14 12 21 22 24 22 16 13 10 9 9 9 29 35 30 42
4 5 6 10 10 7 5 5 11 8 6 7 6 10 5 4 6 13 16 8 4 7 9 6 5 7 7 10 22 24 20 19 23 23 19 6 7 10 14 20 12 21 29 33 37
9 13 8 6 4 5 3 9 15 7 12 8 11 7 9 12 18 21 20 21 11 5 13 4 4 8 6 6 18 20 31 17 11 16 17 15 10 9 8 8 11 18 24 27 38
Wind_Direction
337 332 327 323 319 316 314 311 309 307 306 306 305 304 305 300 296 289 275 268 257 235 238 207 188 174 166 187 203 164 261 277 274 90 157 152 135 158 143 140 156 198 158 158 157
338 333 329 324 321 319 316 313 310 308 306 304 303 304 308 304 301 289 293 267 241 223 204 202 183 175 191 203 202 176 186 236 212 152 162 153 150 149 139 152 152 124 145 158 160
338 333 329 327 321 317 314 312 309 307 305 304 302 303 307 308 311 303 6 266 212 204 209 215 217 199 213 180 190 202 221 214 254 236 171 145 146 153 151 174 159 151 158 166 169
338 335 331 327 324 320 314 311 307 305 304 302 300 302 302 299 278 37 11 83 199 189 202 200 220 221 202 204 202 194 258 246 228 116 149 165 155 163 164 178 167 158 162 163 173
333 332 330 327 323 319 315 311 308 305 302 298 295 297 296 272 259 254 256 122 173 201 216 212 225 220 208 203 196 219 239 261 267 279 148 181 165 167 170 155 164 164 164 169 172
333 329 327 325 322 318 314 311 307 304 300 297 291 286 279 245 292 271 214 231 227 218 218 217 219 223 271 241 189 213 235 251 254 260 172 161 194 131 153 157 159 166 170 175 181
335 332 327 324 320 316 313 311 309 302 293 290 287 281 260 251 258 215 212 227 238 228 234 240 223 208 204 290 295 232 224 254 261 260 221 130 147 155 154 157 163 166 174 178 186
338 336 332 331 326 317 312 311 310 299 291 283 278 275 257 279 269 246 238 234 229 237 241 236 213 230 249 265 312 351 142 221 249 250 171 145 182 153 160 160 168 172 174 173 190
338 337 334 333 332 323 314 318 311 302 292 278 267 252 270 263 247 237 210 210 204 215 224 232 221 228 243 217 356 10 236 243 294 181 170 129 181 165 167 163 169 175 181 184 182
340 338 335 335 333 325 320 328 317 317 352 291 202 282 256 252 301 258 205 198 211 222 233 232 225 207 332 132 221 214 245 268 242 134 174 161 153 161 172 167 174 179 182 187 192
342 339 335 336 334 324 331 2 358 323 317 269 261 248 276 264 285 260 193 196 212 215 192 213 183 225 222 206 225 229 246 253 270 335 87 161 165 172 176 176 179 183 185 190 190
342 340 337 337 335 321 329 20 7 319 294 278 257 255 256 255 293 244 191 190 195 201 151 235 230 210 199 214 225 232 249 262 307 279 167 200 178 174 175 184 183 185 189 193 195
340 340 338 337 338 333 325 346 339 340 269 278 249 240 240 231 228 238 200 197 177 188 200 208 222 199 201 224 225 232 232 250 235 312 266 130 43 169 195 192 192 191 190 193 194
336 337 336 338 346 334 343 301 326 341 315 274 228 249 205 191 218 226 217 194 181 199 190 231 228 206 210 221 218 238 233 242 249 276 244 163 222 214 223 214 192 197 196 196 199
330 331 330 335 320 326 316 309 310 21 310 218 227 262 179 170 159 208 217 194 179 170 165 218 194 216 212 214 216 242 239 235 227 233 217 264 128 245 160 222 211 196 198 198 200
332 329 325 321 311 331 320 334 351 48 247 287 188 151 136 227 253 182 183 209 202 195 214 220 235 201 216 219 219 226 249 253 211 201 228 227 214 239 211 211 222 204 202 201 201
327 326 324 303 291 309 312 323 76 210 311 275 355 345 303 167 236 158 184 192 199 175 212 222 231 234 198 202 221 197 171 252 248 230 234 208 226 227 208 211 204 206 205 203 202
325 323 322 292 297 289 283 63 212 222 255 41 345 318 223 64 245 214 162 208 214 163 180 205 243 214 214 207 213 196 201 203 213 213 251 214 222 232 228 213 200 209 208 204 202
330 328 320 338 325 210 194 191 210 208 25 348 345 345 1 14 5 345 208 205 212 189 187 182 235 265 209 218 193 219 205 202 197 207 268 221 250 295 243 207 208 207 198 202 203
334 337 312 354 10 244 139 254 241 3 3 352 308 294 6 350 332 2 307 262 217 202 196 219 279 219 235 216 241 209 179 188 241 222 240 240 220 233 203 221 198 203 200 201 201
342 324 318 264 302 203 215 215 277 289 331 357 317 293 295 308 248 293 268 319 326 260 212 212 195 240 210 225 218 209 209 230 173 196 225 241 251 192 235 219 206 199 197 204 196
354 305 308 354 4 288 229 195 257 272 285 281 273 282 295 348 298 271 248 220 320 324 309 278 216 230 230 221 205 222 214 184 215 234 235 227 244 133 207 230 206 212 203 206 197
329 286 344 349 7 359 349 346 5 353 346 339 301 39 24 19 336 331 325 332 17 9 359 324 231 232 255 251 243 199 223 217 134 133 222 210 244 187 195 208 223 192 192 195 197
322 315 324 349 17 8 358 349 337 325 292 348 317 39 13 307 213 301 317 346 343 340 343 346 243 244 237 221 184 197 222 210 210 215 216 233 202 281 151 206 221 202 209 199 205
275 267 319 322 343 335 337 276 333 342 352 343 348 2 93 314 307 289 332 328 334 344 350 21 282 282 290 261 207 200 195 211 214 219 211 228 208 231 235 206 226 232 215 209 196
252 301 317 286 302 319 316 301 350 345 302 321 351 319 310 202 251 298 317 319 229 321 348 333 282 331 275 255 230 217 222 228 216 216 228 172 208 186 232 209 225 222 226 198 206
277 279 269 290 281 309 257 341 312 324 288 297 309 305 293 290 288 280 284 280 234 255 289 268 311 354 278 311 218 233 215 204 208 216 211 205 197 188 191 197 201 231 225 220 209